Council Bluffs, IA

1:38 AM CDT on May 26, 2018 (GMT -0500)
Council Bluffs Municipal

Weather History for KCBF - June, 2013

Change the Weather History Date:

Saturday, June 15, 2013

  Actual Average Record
Temperature  
Mean Temperature 73 °F -  
Max Temperature 80 °F 78 °F 95 °F (2016)
Min Temperature 66 °F 60 °F 51 °F (1999)
Cooling Degree Days 8    
Growing Degree Days 23 (Base 50)    
Moisture  
Dew Point 67 °F    
Average Humidity 86    
Maximum Humidity 100    
Minimum Humidity 58    
Precipitation  
Precipitation 0.00 in - - ()
Sea Level Pressure  
Sea Level Pressure 29.90 in    
Wind  
Wind Speed 10 mph (SSE)    
Max Wind Speed 16 mph    
Max Gust Speed 21 mph    
Visibility 10 miles    
Events      
Averages and records for this station are not official NWS values.
T = Trace of Precipitation, MM = Missing Value Source: NWS Daily Summary

Daily Weather History Graph

Daily Weather History Graph

Search for Another Location

Airport or City:

Astronomy

Jun. 15, 2013 Rise Set
Actual Time 5:49 AM CDT 8:57 PM CDT
Civil Twilight 5:15 AM CDT 9:31 PM CDT
Nautical Twilight 4:32 AM CDT 10:15 PM CDT
Astronomical Twilight 3:40 AM CDT 11:06 PM CDT
Moon 12:28 PM CDT (6/15) 12:30 AM CDT (6/15)
Length of Visible Light 16h 16m
Length of Day
15h 08m
Waxing Crescent, 40% of the Moon is Illuminated
Jun 15
Waxing Crescent
Jun 16
First Quarter
Jun 23
Full
Jun 29
Last Quarter
Jul 8
New

Hourly Weather History & Observations

Time (CDT) Temp. Heat Index Dew Point Humidity Pressure Visibility Wind Dir Wind Speed Gust Speed Precip Events Conditions
12:15 AM 66.2 °F - 66.2 °F 100% 29.87 in 10.0 mi East 16.1 mph - N/A   Clear
12:35 AM 68.0 °F - 66.2 °F 94% 29.86 in 10.0 mi SE 13.8 mph - N/A   Clear
12:55 AM 66.2 °F - 66.2 °F 100% 29.87 in 10.0 mi SE 11.5 mph 17.3 mph N/A   Clear
1:15 AM 66.2 °F - 66.2 °F 100% 29.85 in 10.0 mi SE 10.4 mph 19.6 mph N/A   Clear
1:35 AM 66.2 °F - 66.2 °F 100% 29.87 in 10.0 mi East 8.1 mph - N/A   Clear
1:55 AM 66.2 °F - 66.2 °F 100% 29.87 in 10.0 mi ESE 6.9 mph - N/A   Clear
2:15 AM 66.2 °F - 66.2 °F 100% 29.88 in 10.0 mi East 8.1 mph 15.0 mph N/A   Partly Cloudy
2:35 AM 66.2 °F - 66.2 °F 100% 29.88 in 10.0 mi East 9.2 mph - N/A   Partly Cloudy
2:55 AM 66.2 °F - 66.2 °F 100% 29.88 in 10.0 mi ESE 9.2 mph 15.0 mph N/A   Clear
3:15 AM 66.2 °F - 66.2 °F 100% 29.88 in 10.0 mi ESE 8.1 mph - N/A   Clear
3:35 AM 66.2 °F - 66.2 °F 100% 29.88 in 10.0 mi ESE 9.2 mph - N/A   Clear
3:55 AM 66.2 °F - 66.2 °F 100% 29.88 in 10.0 mi ESE 9.2 mph 16.1 mph N/A   Clear
4:15 AM 66.2 °F - 66.2 °F 100% 29.87 in 10.0 mi SE 10.4 mph - N/A   Clear
4:35 AM 66.2 °F - 66.2 °F 100% 29.86 in 10.0 mi SE 12.7 mph - N/A   Clear
4:55 AM 66.2 °F - 66.2 °F 100% 29.86 in 10.0 mi SE 10.4 mph - N/A   Clear
5:15 AM 66.2 °F - 66.2 °F 100% 29.85 in 10.0 mi SE 11.5 mph - N/A   Clear
5:35 AM 66.2 °F - 66.2 °F 100% 29.85 in 10.0 mi SSE 13.8 mph 20.7 mph N/A   Clear
5:55 AM 66.2 °F - 66.2 °F 100% 29.85 in 10.0 mi North - - N/A   Clear
6:15 AM 66.2 °F - 66.2 °F 100% 29.86 in 10.0 mi North - - N/A   Clear
6:35 AM 66.2 °F - 66.2 °F 100% 29.87 in 10.0 mi North - - N/A   Clear
6:55 AM 68.0 °F - 68.0 °F 100% 29.87 in 10.0 mi North - - N/A   Clear
7:15 AM 68.0 °F - 68.0 °F 100% 29.87 in 10.0 mi North - - N/A   Clear
7:35 AM 69.8 °F - 68.0 °F 94% 29.87 in 10.0 mi North - - N/A   Clear
7:55 AM 68.0 °F - 68.0 °F 100% 29.89 in 10.0 mi North - - N/A   Partly Cloudy
8:15 AM 69.8 °F - 68.0 °F 94% 29.88 in 10.0 mi North - - N/A   Scattered Clouds
8:35 AM 71.6 °F - 68.0 °F 88% 29.87 in 10.0 mi WSW 5.8 mph - N/A   Mostly Cloudy
8:55 AM 71.6 °F - 68.0 °F 88% 29.87 in 10.0 mi North - - N/A   Mostly Cloudy
9:15 AM 71.6 °F - 68.0 °F 88% 29.87 in 10.0 mi SSE 6.9 mph - N/A   Partly Cloudy
9:35 AM 75.2 °F - 66.2 °F 73% 29.87 in 10.0 mi SE 6.9 mph - N/A   Scattered Clouds
9:55 AM 73.4 °F - 68.0 °F 83% 29.90 in 10.0 mi SSE 10.4 mph 17.3 mph N/A   Partly Cloudy
10:15 AM 73.4 °F - 69.8 °F 88% 29.92 in 10.0 mi ESE 5.8 mph - N/A   Clear
10:35 AM 77.0 °F - 68.0 °F 74% 29.93 in 10.0 mi WNW 12.7 mph - N/A   Light Drizzle
10:55 AM 77.0 °F - 69.8 °F 78% 29.92 in 10.0 mi NNW 13.8 mph - N/A   Clear
11:15 AM 77.0 °F - 71.6 °F 83% 29.93 in 10.0 mi North 12.7 mph - N/A   Clear
11:35 AM 77.0 °F - 71.6 °F 83% 29.92 in 10.0 mi NNW 8.1 mph - N/A   Partly Cloudy
11:55 AM 75.2 °F - 71.6 °F 89% 29.92 in 10.0 mi NE 10.4 mph - N/A   Scattered Clouds
12:15 PM 75.2 °F - 69.8 °F 83% 29.93 in 10.0 mi NE 5.8 mph - N/A   Scattered Clouds
12:35 PM 75.2 °F - 69.8 °F 83% 29.93 in 10.0 mi Calm Calm - N/A   Mostly Cloudy
12:55 PM 77.0 °F - 69.8 °F 78% 29.94 in 10.0 mi Calm Calm - N/A   Mostly Cloudy
1:15 PM 77.0 °F - 71.6 °F 83% 29.95 in 10.0 mi SSW 4.6 mph - N/A   Mostly Cloudy
1:35 PM 77.0 °F - 71.6 °F 83% 29.95 in 10.0 mi SSW 5.8 mph - N/A   Scattered Clouds
1:55 PM 77.0 °F - 71.6 °F 83% 29.95 in 10.0 mi SSW 6.9 mph - N/A   Clear
2:15 PM 77.0 °F - 71.6 °F 83% 29.96 in 10.0 mi SW 9.2 mph - N/A   Clear
2:35 PM 77.0 °F - 71.6 °F 83% 29.97 in 10.0 mi North - - N/A   Clear
2:55 PM 77.0 °F - 68.0 °F 74% 29.96 in 10.0 mi North - - N/A   Clear
3:15 PM 77.0 °F - 66.2 °F 69% 29.93 in 10.0 mi North - - N/A   Clear
3:35 PM 77.0 °F - 68.0 °F 74% 29.93 in 10.0 mi North - - N/A   Clear
3:55 PM 78.8 °F - 68.0 °F 69% 29.91 in 10.0 mi North - - N/A   Clear
4:15 PM 78.8 °F - 66.2 °F 65% 29.89 in 10.0 mi North - - N/A   Clear
4:35 PM 78.8 °F - 64.4 °F 61% 29.88 in 10.0 mi North - - N/A   Clear
4:55 PM 78.8 °F - 64.4 °F 61% 29.88 in 10.0 mi North - - N/A   Clear
5:15 PM 78.8 °F - 64.4 °F 61% 29.88 in 10.0 mi WSW 4.6 mph - N/A   Clear
5:35 PM 80.6 °F 82.3 °F 64.4 °F 58% 29.88 in 10.0 mi SSW 9.2 mph - N/A   Clear
5:55 PM 80.6 °F 82.7 °F 66.2 °F 61% 29.88 in 10.0 mi WSW 8.1 mph - N/A   Mostly Cloudy
6:15 PM 78.8 °F - 66.2 °F 65% 29.88 in 10.0 mi SW 6.9 mph - N/A   Partly Cloudy
6:35 PM 78.8 °F - 66.2 °F 65% 29.89 in 10.0 mi South 6.9 mph - N/A   Mostly Cloudy
6:55 PM 78.8 °F - 68.0 °F 69% 29.89 in 10.0 mi South 6.9 mph - N/A   Overcast
7:15 PM 77.0 °F - 66.2 °F 69% 29.90 in 10.0 mi South 10.4 mph - N/A   Overcast
7:35 PM 75.2 °F - 66.2 °F 73% 29.90 in 10.0 mi South 9.2 mph - N/A   Mostly Cloudy
7:55 PM 75.2 °F - 66.2 °F 73% 29.90 in 10.0 mi South 9.2 mph - N/A   Scattered Clouds
8:15 PM 75.2 °F - 66.2 °F 73% 29.91 in 10.0 mi South 6.9 mph - N/A   Clear
8:35 PM 73.4 °F - 66.2 °F 78% 29.91 in 10.0 mi South 8.1 mph - N/A   Clear
8:55 PM 71.6 °F - 66.2 °F 83% 29.92 in 10.0 mi South 8.1 mph - N/A   Partly Cloudy
9:15 PM 71.6 °F - 68.0 °F 88% 29.92 in 10.0 mi South 8.1 mph - N/A   Mostly Cloudy
9:35 PM 71.6 °F - 68.0 °F 88% 29.93 in 10.0 mi South 8.1 mph - N/A   Overcast
9:55 PM 71.6 °F - 68.0 °F 88% 29.93 in 10.0 mi South 6.9 mph - N/A   Overcast
10:15 PM 69.8 °F - 68.0 °F 94% 29.94 in 10.0 mi South 6.9 mph - N/A   Overcast
10:35 PM 69.8 °F - 66.2 °F 88% 29.95 in 10.0 mi South 6.9 mph - N/A   Mostly Cloudy
10:55 PM 68.0 °F - 66.2 °F 94% 29.95 in 10.0 mi South 5.8 mph - N/A   Partly Cloudy
11:15 PM 68.0 °F - 66.2 °F 94% 29.95 in 10.0 mi South 4.6 mph - N/A   Unknown
11:35 PM 68.0 °F - 66.2 °F 94% 29.95 in 10.0 mi SSE 6.9 mph - N/A   Clear
11:55 PM 68.0 °F - 66.2 °F 94% 29.95 in 10.0 mi South 5.8 mph - N/A   Clear